Weather History for Barter Island, AK

Change the Weather History Date:

Saturday, February 22, 2014

  Actual Average Record
Temperature  
Mean Temperature -26 °F -  
Max Temperature -20 °F -6 °F 16 °F (2008)
Min Temperature -31 °F -17 °F -38 °F (2007)
Degree Days  
Heating Degree Days 90    
Moisture  
Dew Point -31 °F    
Average Humidity 73    
Maximum Humidity 77    
Minimum Humidity 69    
Precipitation  
Precipitation 0.00 in - - ()
Sea Level Pressure  
Sea Level Pressure 30.49 in    
Wind  
Wind Speed 9 mph (East)    
Max Wind Speed 14 mph    
Max Gust Speed -    
Visibility 10 miles    
Events      
Averages and records for this station are not official NWS values.
T = Trace of Precipitation, MM = Missing Value Source: NWS Daily Summary

Daily Weather History Graph

Daily Weather History Graph

Search for Another Location

Airport:

Trip Planner

Search our weather history database for the weather conditions in past years. The results will help you decide how hot, cold, wet, or windy it might be!

Date:

Astronomy

Feb. 22, 2014 Rise Set
Actual Time 8:33 AM AKST 5:03 PM AKST
Civil Twilight 7:28 AM AKST 6:08 PM AKST
Nautical Twilight 6:17 AM AKST 7:19 PM AKST
Astronomical Twilight 5:05 AM AKST 8:32 PM AKST
Moon 4:44 AM AKST (2/22) 8:10 AM AKST (2/22)
Length of Visible Light 10h 39m
Length of Day
8h 29m
Waning Gibbous, 48% of the Moon is Illuminated
Feb 22
Waning Gibbous
Feb 28
New
Mar 8
First Quarter
Mar 16
Full
Mar 23
Last Quarter

Hourly Weather History & Observations

Time (AKST) Temp. Windchill Dew Point Humidity Pressure Visibility Wind Dir Wind Speed Gust Speed Precip Events Conditions
12:01 AM -31.0 °F -50.3 °F - N/A% 30.60 in 10.0 mi ESE 6.9 mph - N/A   Clear
1:01 AM -29.0 °F -49.5 °F -36.0 °F 69% 30.60 in 10.0 mi East 8.1 mph - N/A   Clear
2:01 AM -27.9 °F -52.1 °F -34.1 °F 73% 30.60 in 10.0 mi East 11.5 mph - N/A   Clear
3:01 AM -27.9 °F -49.6 °F -34.1 °F 73% 30.59 in 10.0 mi East 9.2 mph - N/A   Clear
4:01 AM -27.9 °F -50.9 °F -34.1 °F 73% 30.58 in 10.0 mi East 10.4 mph - N/A   Clear
5:01 AM -27.0 °F -51.0 °F -34.1 °F 69% 30.57 in 10.0 mi East 11.5 mph - N/A   Clear
6:01 AM -27.0 °F -52.1 °F -34.1 °F 69% 30.55 in 10.0 mi East 12.7 mph - N/A   Clear
7:01 AM -27.0 °F -53.1 °F -33.0 °F 73% 30.53 in 10.0 mi East 13.8 mph - N/A   Clear
8:01 AM -27.0 °F -51.0 °F -33.0 °F 73% 30.51 in 10.0 mi East 11.5 mph - N/A   Clear
9:01 AM -27.0 °F -52.1 °F -33.0 °F 73% 30.50 in 10.0 mi East 12.7 mph - N/A   Clear
10:01 AM -26.0 °F -49.6 °F -32.1 °F 73% 30.48 in 10.0 mi East 11.5 mph - N/A   Clear
11:01 AM -25.1 °F -44.7 °F -31.0 °F 74% 30.47 in 10.0 mi East 8.1 mph - N/A   Clear
12:01 PM -23.1 °F -40.7 °F -29.9 °F 70% 30.46 in 10.0 mi East 6.9 mph - N/A   Clear
1:01 PM -23.1 °F -42.3 °F -29.0 °F 74% 30.44 in 10.0 mi East 8.1 mph - N/A   Clear
2:01 PM -20.9 °F - -27.0 °F 73% 30.45 in 10.0 mi Calm Calm - N/A   Clear
3:01 PM -22.0 °F -37.7 °F -27.9 °F 74% 30.42 in 10.0 mi ESE 5.8 mph - N/A   Clear
4:01 PM -22.0 °F -37.7 °F -27.9 °F 74% 30.42 in 10.0 mi ENE 5.8 mph - N/A   Clear
5:01 PM -20.9 °F -39.7 °F -27.0 °F 73% 30.43 in 10.0 mi NNE 8.1 mph - N/A   Clear
6:01 PM -20.0 °F -33.3 °F -26.0 °F 74% 30.43 in 10.0 mi East 4.6 mph - N/A   Clear
7:01 PM -23.1 °F -40.7 °F -29.0 °F 74% 30.44 in 10.0 mi South 6.9 mph - N/A   Clear
8:01 PM -24.0 °F -37.9 °F -29.9 °F 74% 30.45 in 10.0 mi South 4.6 mph - N/A   Clear
9:01 PM -24.0 °F -35.2 °F -29.9 °F 74% 30.45 in 10.0 mi NE 3.5 mph - N/A   Clear
10:01 PM -24.0 °F -44.8 °F -29.9 °F 74% 30.45 in 10.0 mi ENE 9.2 mph - N/A   Clear
11:01 PM -24.0 °F -41.8 °F -29.0 °F 77% 30.46 in 10.0 mi East 6.9 mph - N/A   Clear